Location: Ferchesar
(52.6477°N, 12.4298°E)
Time: 08:16:00
(UTC+01:00)

S-56A Canister/Altair - Pass Details

Date: 13 December 2021
Orbit: 633 x 2499 km, 38.9° (Epoch: 19 January)

Event Time Altitude Azimuth Distance (km) Brightness Sun altitude
Rises 20:40:42 0° 222° (SW) 6,122 12.4 -41.6°
Reaches altitude 10° 20:45:31 10° 213° (SSW) 4,996 11.7 -42.3°
Enters shadow 20:51:49 24° 192° (SSW) 3,701 10.8 -43.2°
Maximum altitude 20:56:42 31° 160° (SSE) 3,118 - -43.9°
Drops below altitude 10° 21:05:25 10° 104° (ESE) 3,859 - -45.1°
Sets 21:08:35 0° 94° (E) 4,581 - -45.6°
